Retour au catalogue

COSMOS 1275 DEB

ActifPO
NORAD 13021·DEBRIS·🇷🇺 Russia

Lancé Jun 4, 1981 depuis Plesetsk Cosmodrome

Loading…

Prochains Passages (prochaines 24 heures)

TLE

FraisSource: Space-Track

Époque: Sep 14, 2026, 09:08 UTC

1 13021U 81053ET  26257.38060370  .00000762  00000-0  45142-3 0  9997
2 13021  83.1426 220.6552 0020213 297.2799 216.4680 14.06347357272219

Suivez COSMOS 1275 DEB en temps réel avec AllMySat

Download on the App Store